Regional Weather Roundup
Issued by NWS Upton, NY

Current Version | Previous Version | Graphics & Text | Print | Product List | Glossary Off
Versions: 1 2 3 4 5 6 7 8 9 10 11 12 13 14 15 16 17 18 19 20 21 22 23 24 25 26 27 28 29 30 31 32 33 34 35 36 37 38 39 40 41 42 43 44 45 46 47 48 49

000
ASUS41 KOKX 270505
RWROKX

REGIONAL WEATHER ROUNDUP
NATIONAL WEATHER SERVICE NEW YORK NY
1200 AM EST FRI FEB 27 2015

NOTE: "FAIR" INDICATES FEW OR NO CLOUDS BELOW 12,000 FEET WITH NO
SIGNIFICANT WEATHER AND/OR OBSTRUCTIONS TO VISIBILITY.

NYZ071-072-176-178-NJZ106-104-270600-
NEW YORK CITY METRO AREA


CITY           SKY/WX    TMP DP  RH WIND       PRES   REMARKS
CENTRAL PARK   PTCLDY    21   7  54 CALM      30.17R
LAGUARDIA APRT MOCLDY    23   9  55 NW10      30.15R WCI  12
KENNEDY INTL   MOCLDY    24  10  55 N10       30.16R WCI  14
NEWARK/LIBERTY MOCLDY    22  11  62 N12       30.17R WCI  10
BRNX BOT. GARD   N/A    N/A N/A N/A NW8       30.17R
TETERBORO      CLEAR     21   9  59 NW6       30.16R WCI  13
$$

NYZ177-179-078>081-270600-
LONG ISLAND NEW YORK

CITY           SKY/WX    TMP DP  RH WIND       PRES   REMARKS
FARMINGDALE    CLEAR     22  12  65 N6        30.14R WCI  14
ISLIP          MOCLDY    21  12  68 NW6       30.12R WCI  13
SHIRLEY        CLEAR     19  10  68 CALM      30.14R
WESTHAMPTON    CLEAR     14   6  70 CALM      30.14R
MONTAUK POINT    N/A     24  14  65 N3        30.12F
$$

NYZ052-065-067-270600-
HUDSON VALLEY

CITY           SKY/WX    TMP DP  RH WIND       PRES   REMARKS
WHITE PLAINS   PTCLDY    17   4  56 NW9       30.12R WCI   6
NEWBURGH       CLOUDY    14   9  79 CALM      30.15R
MONTGOMERY     CLOUDY     9   4  80 CALM      30.14R
POUGHKEEPSIE   CLOUDY    14   4  64 CALM      30.17R
ALBANY         CLOUDY    11  -2  56 N8        30.20R WCI  -1
$$

NJZ001-105-106-008-010-013-015-019>022-104-270600-
NEW JERSEY

CITY           SKY/WX    TMP DP  RH WIND       PRES   REMARKS
NEWARK/LIBERTY MOCLDY    22  11  62 N12       30.17R WCI  10
TETERBORO      CLEAR     21   9  59 NW6       30.16R WCI  13
CALDWELL       PTCLDY    18   8  65 E3        30.17R
MORRISTOWN     PTCLDY    18  12  79 CALM      30.16R
SOMERVILLE     CLOUDY    16  11  80 CALM      30.14S
SUSSEX         MIX PCPN   9   5  84 CALM      30.14R
ANDOVER          N/A      8   5  87 CALM      30.13S
TRENTON        MOCLDY    21  12  68 CALM      30.14R
MILLVILLE      CLEAR     15  11  83 CALM      30.15R
ATLANTIC CITY  CLEAR     18  14  84 NW5       30.14R WCI  11
WRIGHTSTOWN    CLEAR     20  15  82 NW2       30.13R
TOMS RIVER     CLEAR     16  14  93 CALM      30.15R
BELMAR         CLEAR     19  10  68 NW6       30.13R WCI  11
$$

PAZ047>061-062-071-270600-
EASTERN PENNSYLVANIA

CITY           SKY/WX    TMP DP  RH WIND       PRES   REMARKS
PHILADELPHIA   CLOUDY    28  16  60 CALM      30.16R
ALLENTOWN      CLEAR     16   8  71 CALM      30.14R
SCRANTON       LGT SNOW  14   6  70 NW7       30.12S WCI   4
$$

CTZ002-004>006-009-010-012-RIZ004-006-007-MAZ004-011-015-270600-
SOUTHERN NEW ENGLAND
 IN CT

CITY           SKY/WX    TMP DP  RH WIND       PRES   REMARKS
BRADLEY INTL   PTCLDY    14   4  64 NW6       30.12R WCI   5
HARTFORD       PTCLDY    19   8  62 MISG      30.15R
DANBURY        PTCLDY    11   2  67 CALM      30.15R
WTRBRY/OXFORD  PTCLDY    16  -2  45 NW3       30.10R
BRIDGEPORT     PTCLDY    19   9  65 NW5       30.15R WCI  12
MERIDEN        PTCLDY    15   6  67 NW5       30.14R WCI   8
NEW HAVEN      PTCLDY    21   8  57 NW6       30.13R WCI  13
CHESTER        FAIR      19  12  73 CALM      30.10S
GROTON         PTCLDY    16  11  80 NW3       30.12S
WILLIMANTIC    MOCLDY    15   9  76 CALM      30.12R

 IN RI

CITY           SKY/WX    TMP DP  RH WIND       PRES   REMARKS
PROVIDENCE     MOCLDY    20  11  68 N3        30.12R
BLOCK ISLAND   PTCLDY    21  12  68 NE5       30.10R WCI  15
WESTERLY       PTCLDY    17  12  80 CALM      30.12S

 IN MA

CITY           SKY/WX    TMP DP  RH WIND       PRES   REMARKS
BOSTON         CLOUDY    21   6  52 NW6       30.12S WCI  13
WORCESTER      MOCLDY    16  -3  43 NW5       30.04R WCI   9
WESTFIELD      PTCLDY    15   3  59 CALM      30.13R
PROVINCETOWN   MOCLDY    25  12  58 N9        30.10S WCI  15
NANTUCKET      CLOUDY    25  15  66 N10       30.09R WCI  15
$$

ANZ330-335-338-340-345-350-353-355-270600-
COASTAL MARINE OBSERVATIONS


STATION/POSITION TIME  SKY/WX   TEMP    WIND        PRES    VSBY  WAVE
                                AIR SEA DIR/SP/G                  HT/PER
                 (UTC)          (F)     (DEG/KT/KT) (MB)    (MI)  (FT/S)
NY HARB ENTRANCE 0500            28 38  350/ 10/ 14 1020.3          3/ 6
4S FIRE IS       NOT AVBL
20S FIRE ISLAND  0400               36              1020.5          5/ 6
23SW MTP         0500                                 N/A           4/ 5
HUDSON CANYON    NOT AVBL
EXECUTION ROCKS  NOT AVBL
WESTERN LI SOUND NOT AVBL
CENTRAL LI SOUND NOT AVBL
EASTERN LI SOUND NOT AVBL
ROBBINS REEF     0500            22     340/ 13/ 15 1019.9
$$


>>>>>>>>>>>>>>>>>>>>>>>>>>>> KEY <<<<<<<<<<<<<<<<<<<<<<<<<<<
>                                                          <
>     SKY/WX - SKY CONDITION/PRESENT WEATHER               <
>     TMP    - TEMPERATURE IN FAHRENHEIT                   <
>     DP     - DEWPOINT IN FAHRENHEIT                      <
>     RH     - RELATIVE HUMIDITY IN PERCENT                <
>     WIND   - DIRECTION AND SPEED IN MPH                  <
>     PRES   - MEAN SEA LEVEL PRESSURE IN INCHES OF HG     <
>     WCI    - WIND CHILL INDEX                            <
>     VSB    - VISIBILITY IN MILES                         <
>     HX     - HEAT INDEX                                  <
>     TC     - TEMPERATURE IN CELSIUS                      <
>     VRB    - VARIABLE WIND DIRECTION                     <
>                                                          <
>>>>>>>>>>>>>>>>>>>>>>>>>>>> KEY <<<<<<<<<<<<<<<<<<<<<<<<<<<





USA.gov is the U.S. government's official web portal to all federal, state and local government web resources and services.